Regional Weather Roundup
Issued by NWS Charleston, SC

Current Version | Previous Version | Graphics & Text | Print | Product List | Glossary On
Versions: 1 2 3 4 5 6 7 8 9 10 11 12 13 14 15 16 17 18 19 20 21 22 23 24 25 26 27 28 29 30 31 32 33 34 35 36 37 38 39 40 41 42 43 44 45 46 47 48 49 50
000
ASUS42 KCHS 201612
RWRCHS

REGIONAL WEATHER ROUNDUP
NATIONAL WEATHER SERVICE CHARLESTON SC
1200 PM EDT THU JUL 20 2017

NOTE: "FAIR" INDICATES FEW OR NO CLOUDS BELOW 12,000 FEET WITH NO
SIGNIFICANT WEATHER AND/OR OBSTRUCTIONS TO VISIBILITY.

NOT ALL STATIONS ARE QUALITY CONTROLLED. USE DATA WITH CAUTION...
ESPECIALLY DEWPOINT OBSERVATIONS.

SCZ027-030-031-034>040-042>050-201700-
...SOUTHEAST SOUTH CAROLINA...

CITY           SKY/WX    TMP DP  RH WIND       PRES   REMARKS
N CHARLESTON   MOSUNNY   89  74  60 NW5       30.10R HX  98
WATERFRONT PRK   N/A     86  76  72 S5        30.09R HX  96
JOHNS ISLAND   FAIR      90  75  62 VRB5      30.11R HX 100
PINOPOLIS        N/A     84  75  74 CALM      30.04R HX  92
MONCKS CORNER  FAIR      86  73  66 CALM      30.10S HX  93
SUMMERVILLE    FAIR      88  75  66 CALM      30.11S HX  97
BEAUFORT MCAS  MOSUNNY   91  77  63 VRB5      30.11R HX 104
BEAUFORT ARPT  PTSUNNY   86  75  70 S6        30.10S HX  95
HILTON HEAD IS MOSUNNY   86  79  79 SE7       30.12R HX  99
WALTERBORO     SUNNY     88  73  62 W5        30.11S HX  96
ALLENDALE        N/A    N/A N/A N/A MISG        N/A

...SOUTHERN MIDLANDS AND PEE DEE...

CITY           SKY/WX    TMP DP  RH WIND       PRES   REMARKS
GEORGETOWN     FAIR      86  77  74 CALM      30.11S HX  97
KINGSTREE      FAIR      86  73  66 CALM      30.10S HX  93
ORANGEBURG     SUNNY     88  74  63 VRB3      30.10R HX  96
BARNWELL       FAIR      91  77  62 CALM      30.10S HX 105
AIKEN          FAIR      90  72  55 W3        30.14R HX  96
MANNING        FAIR      86  72  62 MISG      30.10S HX  92
COLUMBIA       MOSUNNY   92  74  55 CALM      30.09R HX 101
SUMTER         MOSUNNY   89  72  58 CALM      30.07S HX  96
FLORENCE       SUNNY     88  75  65 CALM      30.09S HX  97
MYRTLE BEACH   MOSUNNY   88  73  62 VRB6      30.11R HX  96
N MYRTLE BEACH SUNNY     85  74  69 S8        30.09S HX  92

$$

GAZ063-065-086>088-099>101-113>116-118-119-134>141-150-201700-
...SOUTHEAST GEORGIA...

CITY           SKY/WX    TMP DP  RH WIND       PRES   REMARKS
SAVANNAH ARPT  MOSUNNY   89  77  67 CALM      30.11R HX 101
HUNTER AAF     SUNNY     91  75  59 NW5       30.08S HX 102
FORT STEWART   MOSUNNY   89  74  61 SW3       30.08F HX  98
STATESBORO     SUNNY     91  76  61 CALM      30.11S HX 101
SYLVANIA       SUNNY     90  79  69 CALM      30.11S HX 106
CLAXTON        FAIR      90  76  63 CALM      30.10S HX 102

...CSRA...CENTRAL AND FAR SOUTHEAST GEORGIA...

CITY           SKY/WX    TMP DP  RH WIND       PRES   REMARKS
THOMSON        SUNNY     91  73  54 NW7       30.16R HX  99
AUGUSTA-BUSH   SUNNY     93  77  59 E5        30.10R HX 107
AUGUSTA-DANIEL SUNNY     93  69  45 NW6       30.11R HX  98
SWAINSBORO     FAIR      91  73  55 NW5       30.11S HX 100
VIDALIA        MOSUNNY   91  75  59 CALM      30.11S HX 102
EASTMAN        FAIR      91  61  36 W3        30.13S HX  91
HAZLEHURST     FAIR      92  78  64 CALM      30.10S HX 106
ALMA           MOSUNNY   90  74  59 VRB3      30.11R HX  99
WAYCROSS       PTSUNNY   93  78  61 CALM      30.11S HX 109
JESUP          FAIR      91  72  52 CALM      30.11S HX  98
BAXLEY         CLOUDY    90  81  74 CALM      30.11S HX 108
BRUNSWICK      SUNNY     90  73  58 CALM      30.11F HX  98
SAINT SIMONS   SUNNY     88  76  67 SE12      30.11R HX  99

$$

SCZ027-028-034-036>038-045-046-048>050-GAZ119-141-201700-
...LAKE AND SUPPLEMENTAL COASTAL OBSERVATIONS...

STATION/POSITION TIME  TEMP    WIND        PRES    WAVE   SWELL
                       AIR SEA DIR/SP/G            HT/PER HT/PER/DIR
                 (UTC) (F)     (DEG/KT/KT) (MB)    (FT/S) (FT/S/D)
WINYAH BAY       NOT AVBL
LAKE MURRAY      1520   88     180/  4/  5 1017.9
ACE BASIN NERRS  NOT AVBL
FORT PULASKI     1542   85 85   90/  4/  5 1020.0R
SAPELO ISLAND    1500   87        CALM     1019.0

$$

ANZ835-935-AMZ111-154-330-350-352-354-370-450-454-472-201700-
...C-MAN AND BUOY OBSERVATIONS...

STATION/POSITION TIME  TEMP    WIND        PRES    WAVE   SWELL
                       AIR SEA DIR/SP/G            HT/PER HT/PER/DIR
                 (UTC) (F)     (DEG/KT/KT) (MB)    (FT/S) (FT/S/D)
BUOY 41004       1550   83 83   CALM  /  2 1019.5R   2/ 8   2/120/ 8
BUOY 41008       1450   83 83  260/  2/  2 1019.4    2/ 9   2/100/ 9
FOLLY BEACH CMAN 1500   84     170/  3/  3 1019.9R
CAPERS NEARSHORE 1508   84 83  220/  4/  6 1019.3R
FRIPP NEARSHORE  1508   82 84  210/  6/  8 1019.5R


STATION/POSITION TIME  TEMP    WIND        PRES    WAVE   SWELL
                       AIR SEA DIR/SP/G            HT/PER HT/PER/DIR
                 (UTC) (F)     (DEG/KT/KT) (MB)    (FT/S) (FT/S/D)
5E ST. MARYS GA  1530      83                N/A     2/ 8
FRYING PAN BUOY  1550   80 84  280/  6/  8 1019.0S   2/ 7   2/120/ 7
BUOY 41025       1550   82 85   20/  2/  4 1018.7R   2/ 7   2/140/ 7
CAPE LOOKOUT NC  1500   81     140/  5/  5 1018.2R
BUOY 41002       1550   82 84  210/  6/  8 1020.4R   3/ 7   3/ 90/ 7
BUOY 41010       1550   77 85  220/  6/  8 1020.5S   3/ 8   3/ 90/ 8
ST AUGUSTINE FL  1600   80 81  100/  5/  5 1020.6F


$$




USA.gov is the U.S. government's official web portal to all federal, state and local government web resources and services.